Wetterdaten: Samstag, 04.04.2015
Datum Zeit Auen-Temp. Temp gefhlt Luftfeuchte Luftdruck Regen Wind Richtung Richtung Taupunkt Windben
04.04.2015 00:00 1,8 C 1,5 C 78 % 1015,9 hPa 0,0 mm 0,5 km/h (0 Bft) SW 225 -1,6 C 3,1 km/h (1 Bft)
04.04.2015 00:05 1,8 C 1,5 C 79 % 1015,8 hPa 0,0 mm 2,1 km/h (1 Bft) S-SW 202 -1,4 C 6,0 km/h (2 Bft)
04.04.2015 00:10 1,7 C 1,4 C 79 % 1015,8 hPa 0,0 mm 3,9 km/h (1 Bft) W-SW 247 -1,5 C 3,6 km/h (1 Bft)
04.04.2015 00:15 1,7 C 1,4 C 80 % 1015,8 hPa 0,7 mm 2,1 km/h (1 Bft) O-SO 112 -1,4 C 0,0 km/h (0 Bft)
04.04.2015 00:20 1,7 C 1,4 C 81 % 1015,8 hPa 0,0 mm 0,8 km/h (0 Bft) O 90 -1,2 C 0,0 km/h (0 Bft)
04.04.2015 00:25 1,7 C 1,4 C 81 % 1015,8 hPa 0,0 mm 0,3 km/h (0 Bft) O-NO 67 -1,2 C 0,0 km/h (0 Bft)
04.04.2015 00:30 1,7 C 1,4 C 81 % 1015,8 hPa 0,0 mm 0,0 km/h (0 Bft) O-NO 67 -1,2 C 0,0 km/h (0 Bft)
04.04.2015 00:35 1,6 C 1,3 C 82 % 1015,8 hPa 0,0 mm 0,0 km/h (0 Bft) O-SO 112 -1,1 C 0,0 km/h (0 Bft)
04.04.2015 00:40 1,6 C 1,3 C 83 % 1015,8 hPa 0,0 mm 0,0 km/h (0 Bft) SO 135 -1,0 C 0,0 km/h (0 Bft)
04.04.2015 00:45 1,6 C 1,3 C 85 % 1015,5 hPa 0,0 mm 0,0 km/h (0 Bft) O 90 -0,6 C 0,0 km/h (0 Bft)
04.04.2015 00:50 1,6 C 1,3 C 85 % 1015,5 hPa 0,0 mm 0,0 km/h (0 Bft) O-NO 67 -0,6 C 0,0 km/h (0 Bft)
04.04.2015 00:55 1,6 C 1,3 C 84 % 1015,5 hPa 0,0 mm 0,0 km/h (0 Bft) N-NO 22 -0,8 C 0,0 km/h (0 Bft)
04.04.2015 01:00 1,5 C 1,2 C 84 % 1015,5 hPa 0,0 mm 0,0 km/h (0 Bft) SW 225 -0,9 C 0,0 km/h (0 Bft)
04.04.2015 01:05 1,5 C 1,2 C 84 % 1015,2 hPa 0,0 mm 0,0 km/h (0 Bft) O-NO 67 -0,9 C 0,0 km/h (0 Bft)
04.04.2015 01:10 1,5 C 1,2 C 84 % 1015,2 hPa 0,0 mm 0,0 km/h (0 Bft) O-SO 112 -0,9 C 0,0 km/h (0 Bft)
04.04.2015 01:15 1,5 C 1,2 C 85 % 1015,2 hPa 0,0 mm 0,0 km/h (0 Bft) O-NO 67 -0,7 C 0,0 km/h (0 Bft)
04.04.2015 01:20 1,4 C 1,2 C 85 % 1015,2 hPa 0,0 mm 0,0 km/h (0 Bft) O-NO 67 -0,8 C 0,0 km/h (0 Bft)
04.04.2015 01:25 1,3 C 1,2 C 81 % 1015,2 hPa 0,0 mm 0,0 km/h (0 Bft) O-NO 67 -1,6 C 0,0 km/h (0 Bft)
04.04.2015 01:30 1,3 C 1,2 C 81 % 1015,2 hPa 0,0 mm 0,0 km/h (0 Bft) SO 135 -1,6 C 0,0 km/h (0 Bft)
04.04.2015 01:35 1,3 C 1,1 C 85 % 1015,2 hPa 0,7 mm 0,0 km/h (0 Bft) NO 45 -0,9 C 0,0 km/h (0 Bft)
04.04.2015 01:40 1,3 C 1,1 C 85 % 1015,2 hPa 0,0 mm 0,0 km/h (0 Bft) O 90 -0,9 C 0,0 km/h (0 Bft)
04.04.2015 01:45 1,2 C 1,0 C 85 % 1015,1 hPa 0,0 mm 0,0 km/h (0 Bft) O-SO 112 -1,0 C 0,0 km/h (0 Bft)
04.04.2015 01:50 1,2 C 1,0 C 86 % 1015,1 hPa 0,0 mm 0,0 km/h (0 Bft) O 90 -0,9 C 0,0 km/h (0 Bft)
04.04.2015 01:55 1,1 C 0,9 C 82 % 1015,1 hPa 0,0 mm 0,0 km/h (0 Bft) O-SO 112 -1,6 C 0,0 km/h (0 Bft)
04.04.2015 02:00 1,1 C 0,9 C 86 % 1015,1 hPa 0,0 mm 0,0 km/h (0 Bft) SO 135 -1,0 C 0,0 km/h (0 Bft)
04.04.2015 02:05 1,0 C 0,8 C 86 % 1014,9 hPa 0,0 mm 0,0 km/h (0 Bft) O-SO 112 -1,1 C 0,0 km/h (0 Bft)
04.04.2015 02:10 0,9 C 0,7 C 86 % 1014,9 hPa 0,0 mm 0,0 km/h (0 Bft) O 90 -1,2 C 0,0 km/h (0 Bft)
04.04.2015 02:15 0,8 C 0,6 C 86 % 1014,9 hPa 0,0 mm 0,0 km/h (0 Bft) O-SO 112 -1,3 C 0,0 km/h (0 Bft)
04.04.2015 02:20 0,8 C 0,5 C 86 % 1014,9 hPa 0,0 mm 0,0 km/h (0 Bft) O-SO 112 -1,3 C 0,0 km/h (0 Bft)
04.04.2015 02:25 0,7 C 0,5 C 86 % 1014,8 hPa 0,0 mm 0,0 km/h (0 Bft) N-NO 22 -1,4 C 0,0 km/h (0 Bft)
04.04.2015 02:30 0,6 C 0,3 C 86 % 1014,8 hPa 0,0 mm 0,0 km/h (0 Bft) O 90 -1,5 C 0,0 km/h (0 Bft)
04.04.2015 02:35 0,6 C 0,3 C 86 % 1014,8 hPa 0,0 mm 0,0 km/h (0 Bft) O 90 -1,5 C 0,0 km/h (0 Bft)
04.04.2015 02:40 0,6 C 0,3 C 86 % 1014,8 hPa 0,0 mm 0,0 km/h (0 Bft) NO 45 -1,5 C 0,0 km/h (0 Bft)
04.04.2015 02:45 0,5 C 0,2 C 86 % 1014,6 hPa 0,0 mm 0,0 km/h (0 Bft) O-NO 67 -1,6 C 0,0 km/h (0 Bft)
04.04.2015 02:50 0,4 C 0,2 C 86 % 1014,6 hPa 0,0 mm 0,0 km/h (0 Bft) O-SO 112 -1,7 C 0,0 km/h (0 Bft)
04.04.2015 02:55 0,4 C 0,1 C 86 % 1014,6 hPa 0,0 mm 0,0 km/h (0 Bft) O-SO 112 -1,7 C 0,0 km/h (0 Bft)
04.04.2015 03:00 0,4 C 0,1 C 86 % 1014,6 hPa 0,0 mm 0,0 km/h (0 Bft) O 90 -1,7 C 0,0 km/h (0 Bft)
04.04.2015 03:05 0,4 C 0,1 C 86 % 1014,3 hPa 0,0 mm 0,0 km/h (0 Bft) O 90 -1,7 C 0,0 km/h (0 Bft)
04.04.2015 03:10 0,3 C 0,1 C 86 % 1014,3 hPa 0,0 mm 0,0 km/h (0 Bft) O 90 -1,8 C 0,0 km/h (0 Bft)
04.04.2015 03:15 0,3 C 0,1 C 86 % 1014,3 hPa 0,0 mm 0,0 km/h (0 Bft) O-NO 67 -1,8 C 0,0 km/h (0 Bft)
04.04.2015 03:20 0,3 C 0,1 C 86 % 1014,3 hPa 0,0 mm 0,0 km/h (0 Bft) O-NO 67 -1,8 C 0,0 km/h (0 Bft)
04.04.2015 03:25 0,3 C 0,1 C 86 % 1014,2 hPa 0,0 mm 0,0 km/h (0 Bft) O-NO 67 -1,8 C 0,0 km/h (0 Bft)
04.04.2015 03:30 0,3 C 0,1 C 86 % 1014,2 hPa 0,0 mm 0,0 km/h (0 Bft) O-NO 67 -1,8 C 0,0 km/h (0 Bft)
04.04.2015 03:35 0,3 C 0,1 C 86 % 1014,2 hPa 0,0 mm 0,0 km/h (0 Bft) O-NO 67 -1,8 C 0,0 km/h (0 Bft)
04.04.2015 03:40 0,3 C 0,1 C 86 % 1014,2 hPa 0,0 mm 0,0 km/h (0 Bft) O-NO 67 -1,8 C 0,0 km/h (0 Bft)
04.04.2015 03:45 0,3 C 0,1 C 86 % 1013,9 hPa 0,0 mm 0,0 km/h (0 Bft) O-NO 67 -1,8 C 0,0 km/h (0 Bft)
04.04.2015 03:50 0,3 C 0,1 C 86 % 1013,9 hPa 0,0 mm 0,0 km/h (0 Bft) O-NO 67 -1,8 C 0,0 km/h (0 Bft)
04.04.2015 03:55 0,2 C 0,0 C 86 % 1013,9 hPa 0,0 mm 0,0 km/h (0 Bft) O-NO 67 -1,9 C 0,0 km/h (0 Bft)
04.04.2015 04:00 0,2 C 0,0 C 86 % 1013,9 hPa 0,0 mm 0,0 km/h (0 Bft) O-NO 67 -1,9 C 0,0 km/h (0 Bft)
04.04.2015 04:05 0,2 C 0,0 C 86 % 1013,8 hPa 0,0 mm 0,0 km/h (0 Bft) O-NO 67 -1,9 C 0,0 km/h (0 Bft)
04.04.2015 04:10 0,2 C 0,0 C 86 % 1013,8 hPa 0,0 mm 0,0 km/h (0 Bft) O-NO 67 -1,9 C 0,0 km/h (0 Bft)
04.04.2015 04:15 0,2 C 0,0 C 86 % 1013,8 hPa 0,0 mm 0,0 km/h (0 Bft) O-NO 67 -1,9 C 0,0 km/h (0 Bft)
04.04.2015 04:20 0,2 C 0,0 C 86 % 1013,8 hPa 0,0 mm 0,0 km/h (0 Bft) O-NO 67 -1,9 C 0,0 km/h (0 Bft)
04.04.2015 04:25 0,2 C 0,0 C 86 % 1013,6 hPa 0,0 mm 0,0 km/h (0 Bft) O-NO 67 -1,9 C 0,0 km/h (0 Bft)
04.04.2015 04:30 0,2 C 0,0 C 86 % 1013,6 hPa 0,0 mm 0,0 km/h (0 Bft) O-NO 67 -1,9 C 0,0 km/h (0 Bft)
04.04.2015 04:35 0,2 C 0,0 C 86 % 1013,6 hPa 0,0 mm 0,0 km/h (0 Bft) O-NO 67 -1,9 C 0,0 km/h (0 Bft)
04.04.2015 04:40 0,2 C 0,0 C 86 % 1013,6 hPa 0,0 mm 0,0 km/h (0 Bft) O-NO 67 -1,9 C 0,0 km/h (0 Bft)
04.04.2015 04:45 0,2 C 0,0 C 86 % 1013,3 hPa 0,0 mm 0,0 km/h (0 Bft) O-NO 67 -1,9 C 0,0 km/h (0 Bft)
04.04.2015 04:50 0,2 C 0,0 C 86 % 1013,3 hPa 0,0 mm 0,0 km/h (0 Bft) O-NO 67 -1,9 C 0,0 km/h (0 Bft)
04.04.2015 04:55 0,2 C 0,0 C 86 % 1013,3 hPa 0,0 mm 0,0 km/h (0 Bft) O-NO 67 -1,9 C 0,0 km/h (0 Bft)
04.04.2015 05:00 0,2 C 0,0 C 87 % 1013,3 hPa 0,0 mm 0,0 km/h (0 Bft) O-NO 67 -1,7 C 0,0 km/h (0 Bft)
04.04.2015 05:05 0,2 C 0,0 C 87 % 1013,1 hPa 0,0 mm 0,0 km/h (0 Bft) O-NO 67 -1,7 C 0,0 km/h (0 Bft)
04.04.2015 05:10 0,2 C 0,0 C 87 % 1013,1 hPa 0,0 mm 0,0 km/h (0 Bft) O-NO 67 -1,7 C 0,0 km/h (0 Bft)
04.04.2015 05:15 0,2 C 0,0 C 87 % 1013,1 hPa 0,0 mm 0,0 km/h (0 Bft) O-NO 67 -1,7 C 0,0 km/h (0 Bft)
04.04.2015 05:20 0,2 C 0,0 C 87 % 1013,1 hPa 0,0 mm 0,0 km/h (0 Bft) O-NO 67 -1,7 C 0,0 km/h (0 Bft)
04.04.2015 05:25 0,2 C 0,0 C 87 % 1013,1 hPa 0,0 mm 0,0 km/h (0 Bft) O-NO 67 -1,7 C 0,0 km/h (0 Bft)
04.04.2015 05:30 0,2 C 0,0 C 87 % 1013,1 hPa 0,0 mm 0,0 km/h (0 Bft) O-NO 67 -1,7 C 0,0 km/h (0 Bft)
04.04.2015 05:35 0,2 C 0,0 C 87 % 1013,1 hPa 0,0 mm 0,0 km/h (0 Bft) O-NO 67 -1,7 C 0,0 km/h (0 Bft)
04.04.2015 05:40 0,2 C 0,0 C 87 % 1013,1 hPa 0,0 mm 0,0 km/h (0 Bft) O-NO 67 -1,7 C 0,0 km/h (0 Bft)
04.04.2015 05:45 0,2 C 0,0 C 87 % 1012,8 hPa 0,0 mm 0,0 km/h (0 Bft) O-NO 67 -1,7 C 0,0 km/h (0 Bft)
04.04.2015 05:50 0,2 C 0,0 C 87 % 1012,8 hPa 0,0 mm 0,0 km/h (0 Bft) O-NO 67 -1,7 C 0,0 km/h (0 Bft)
04.04.2015 05:55 0,2 C 0,0 C 87 % 1012,8 hPa 0,0 mm 0,0 km/h (0 Bft) O-NO 67 -1,7 C 0,0 km/h (0 Bft)
04.04.2015 06:00 0,2 C 0,0 C 87 % 1012,8 hPa 0,0 mm 0,0 km/h (0 Bft) O-NO 67 -1,7 C 0,0 km/h (0 Bft)
04.04.2015 06:05 0,2 C 0,0 C 87 % 1012,5 hPa 0,0 mm 0,0 km/h (0 Bft) O-NO 67 -1,7 C 0,0 km/h (0 Bft)
04.04.2015 06:10 0,2 C 0,0 C 87 % 1012,5 hPa 0,0 mm 0,0 km/h (0 Bft) O-NO 67 -1,7 C 0,0 km/h (0 Bft)
04.04.2015 06:15 0,2 C 0,0 C 87 % 1012,5 hPa 0,0 mm 0,0 km/h (0 Bft) O-NO 67 -1,7 C 0,0 km/h (0 Bft)
04.04.2015 06:20 0,2 C 0,0 C 87 % 1012,5 hPa 0,0 mm 0,0 km/h (0 Bft) O-NO 67 -1,7 C 0,0 km/h (0 Bft)
04.04.2015 06:25 0,2 C 0,0 C 87 % 1012,6 hPa 0,0 mm 0,0 km/h (0 Bft) O-NO 67 -1,7 C 0,0 km/h (0 Bft)
04.04.2015 06:30 0,2 C 0,0 C 87 % 1012,6 hPa 0,0 mm 0,0 km/h (0 Bft) O-NO 67 -1,7 C 0,0 km/h (0 Bft)
04.04.2015 06:35 0,2 C 0,0 C 88 % 1012,6 hPa 0,0 mm 0,0 km/h (0 Bft) O-NO 67 -1,5 C 0,0 km/h (0 Bft)
04.04.2015 06:40 0,2 C 0,0 C 88 % 1012,6 hPa 0,0 mm 0,0 km/h (0 Bft) O-NO 67 -1,5 C 0,0 km/h (0 Bft)
04.04.2015 06:45 0,2 C 0,0 C 88 % 1012,6 hPa 0,0 mm 0,0 km/h (0 Bft) O-NO 67 -1,5 C 0,0 km/h (0 Bft)
04.04.2015 06:50 0,2 C 0,0 C 88 % 1012,6 hPa 0,0 mm 0,0 km/h (0 Bft) O-NO 67 -1,5 C 0,0 km/h (0 Bft)
04.04.2015 06:55 0,2 C 0,0 C 88 % 1012,6 hPa 0,0 mm 0,0 km/h (0 Bft) O-NO 67 -1,5 C 0,0 km/h (0 Bft)
04.04.2015 07:00 0,2 C 0,0 C 88 % 1012,6 hPa 0,0 mm 0,0 km/h (0 Bft) O-NO 67 -1,5 C 0,0 km/h (0 Bft)
04.04.2015 07:05 0,2 C 0,0 C 88 % 1012,4 hPa 0,0 mm 0,0 km/h (0 Bft) O-NO 67 -1,5 C 0,0 km/h (0 Bft)
04.04.2015 07:10 0,2 C 0,0 C 88 % 1012,4 hPa 0,0 mm 0,0 km/h (0 Bft) O-NO 67 -1,5 C 0,0 km/h (0 Bft)
04.04.2015 07:15 0,2 C 0,1 C 86 % 1012,4 hPa 0,0 mm 0,0 km/h (0 Bft) O-NO 67 -1,9 C 0,0 km/h (0 Bft)
04.04.2015 07:20 0,2 C 0,1 C 86 % 1012,4 hPa 0,0 mm 0,0 km/h (0 Bft) O-NO 67 -1,9 C 0,0 km/h (0 Bft)
04.04.2015 07:25 0,2 C 0,1 C 86 % 1012,3 hPa 0,0 mm 0,0 km/h (0 Bft) O-NO 67 -1,9 C 0,0 km/h (0 Bft)
04.04.2015 07:30 0,2 C 0,1 C 86 % 1012,3 hPa 0,0 mm 0,0 km/h (0 Bft) O-NO 67 -1,9 C 0,0 km/h (0 Bft)
04.04.2015 07:35 0,2 C 0,2 C 86 % 1012,3 hPa 0,0 mm 0,0 km/h (0 Bft) O-NO 67 -1,9 C 0,0 km/h (0 Bft)
04.04.2015 07:40 0,2 C 0,2 C 86 % 1012,3 hPa 0,0 mm 0,0 km/h (0 Bft) O-NO 67 -1,9 C 0,0 km/h (0 Bft)
04.04.2015 07:45 0,2 C 0,3 C 86 % 1012,1 hPa 0,0 mm 0,0 km/h (0 Bft) O-NO 67 -1,9 C 0,0 km/h (0 Bft)
04.04.2015 07:50 0,2 C 0,5 C 86 % 1012,1 hPa 0,0 mm 0,0 km/h (0 Bft) O-NO 67 -1,9 C 0,0 km/h (0 Bft)
04.04.2015 07:55 0,2 C 0,5 C 86 % 1012,1 hPa 0,0 mm 0,0 km/h (0 Bft) O-NO 67 -1,9 C 0,0 km/h (0 Bft)
04.04.2015 08:00 0,2 C 0,6 C 86 % 1012,1 hPa 0,0 mm 0,0 km/h (0 Bft) O-NO 67 -1,9 C 0,0 km/h (0 Bft)
04.04.2015 08:05 0,2 C 0,8 C 86 % 1012,1 hPa 0,0 mm 0,0 km/h (0 Bft) O-NO 67 -1,9 C 0,0 km/h (0 Bft)
04.04.2015 08:10 0,2 C 0,8 C 86 % 1012,1 hPa 0,0 mm 0,0 km/h (0 Bft) O-NO 67 -1,9 C 0,0 km/h (0 Bft)
04.04.2015 08:15 0,2 C 0,9 C 86 % 1012,1 hPa 0,0 mm 0,0 km/h (0 Bft) O-NO 67 -1,9 C 0,0 km/h (0 Bft)
04.04.2015 08:20 0,2 C 1,0 C 86 % 1012,1 hPa 0,0 mm 0,0 km/h (0 Bft) O-NO 67 -1,9 C 0,0 km/h (0 Bft)
04.04.2015 08:25 0,2 C 1,2 C 86 % 1012,0 hPa 0,0 mm 0,0 km/h (0 Bft) NO 45 -1,9 C 0,0 km/h (0 Bft)
04.04.2015 08:30 0,2 C 1,2 C 86 % 1012,0 hPa 0,0 mm 0,0 km/h (0 Bft) N-NO 22 -1,9 C 0,0 km/h (0 Bft)
04.04.2015 08:35 0,2 C 1,2 C 86 % 1012,0 hPa 0,0 mm 0,0 km/h (0 Bft) N-NO 22 -1,9 C 0,0 km/h (0 Bft)
04.04.2015 08:40 0,8 C 1,2 C 86 % 1012,0 hPa 0,0 mm 0,0 km/h (0 Bft) N-NO 22 -1,3 C 0,0 km/h (0 Bft)
04.04.2015 08:45 0,8 C 1,1 C 86 % 1012,1 hPa 0,0 mm 0,0 km/h (0 Bft) NO 45 -1,3 C 0,0 km/h (0 Bft)
04.04.2015 08:50 0,9 C 1,2 C 86 % 1012,1 hPa 0,7 mm 0,0 km/h (0 Bft) N-NO 22 -1,2 C 0,0 km/h (0 Bft)
04.04.2015 08:55 0,9 C 1,3 C 86 % 1012,1 hPa 0,0 mm 0,0 km/h (0 Bft) O-NO 67 -1,2 C 0,0 km/h (0 Bft)
04.04.2015 09:00 0,9 C 1,3 C 86 % 1012,1 hPa 0,0 mm 0,0 km/h (0 Bft) N-NO 22 -1,2 C 0,0 km/h (0 Bft)
04.04.2015 09:05 0,9 C 1,3 C 86 % 1011,9 hPa 0,0 mm 0,0 km/h (0 Bft) N-NO 22 -1,2 C 0,0 km/h (0 Bft)
04.04.2015 09:10 0,9 C 1,3 C 86 % 1011,9 hPa 0,0 mm 0,0 km/h (0 Bft) NO 45 -1,2 C 0,0 km/h (0 Bft)
04.04.2015 09:15 0,9 C 1,3 C 86 % 1011,9 hPa 0,0 mm 0,5 km/h (0 Bft) NO 45 -1,2 C 0,0 km/h (0 Bft)
04.04.2015 09:20 0,9 C 1,3 C 86 % 1011,9 hPa 0,0 mm 1,0 km/h (0 Bft) NO 45 -1,2 C 3,9 km/h (1 Bft)
04.04.2015 09:25 0,8 C 1,4 C 86 % 1011,9 hPa 0,0 mm 1,3 km/h (1 Bft) N-NO 22 -1,3 C 0,0 km/h (0 Bft)
04.04.2015 09:30 0,9 C 1,5 C 86 % 1011,9 hPa 0,0 mm 1,0 km/h (0 Bft) NO 45 -1,2 C 2,8 km/h (1 Bft)
04.04.2015 09:35 0,9 C 1,6 C 86 % 1011,9 hPa 0,0 mm 0,5 km/h (0 Bft) NO 45 -1,2 C 2,6 km/h (1 Bft)
04.04.2015 09:40 0,9 C 1,6 C 86 % 1011,9 hPa 0,0 mm 0,8 km/h (0 Bft) NO 45 -1,2 C 2,8 km/h (1 Bft)
04.04.2015 09:45 1,0 C 1,8 C 86 % 1011,9 hPa 0,0 mm 1,0 km/h (0 Bft) O-NO 67 -1,1 C 0,0 km/h (0 Bft)
04.04.2015 09:50 1,0 C 1,9 C 86 % 1011,9 hPa 0,0 mm 0,8 km/h (0 Bft) O-NO 67 -1,1 C 0,0 km/h (0 Bft)
04.04.2015 09:55 1,0 C 1,7 C 86 % 1011,9 hPa 0,0 mm 0,3 km/h (0 Bft) NO 45 -1,1 C 0,0 km/h (0 Bft)
04.04.2015 10:00 1,0 C 2,0 C 86 % 1011,9 hPa 0,0 mm 0,0 km/h (0 Bft) NO 45 -1,1 C 0,0 km/h (0 Bft)
04.04.2015 10:05 1,0 C 1,9 C 86 % 1011,9 hPa 0,0 mm 1,0 km/h (0 Bft) NO 45 -1,1 C 2,8 km/h (1 Bft)
04.04.2015 10:10 1,0 C 1,7 C 86 % 1011,9 hPa 0,0 mm 2,1 km/h (1 Bft) O-NO 67 -1,1 C 4,1 km/h (1 Bft)
04.04.2015 10:15 1,0 C 1,6 C 86 % 1011,9 hPa 0,7 mm 3,4 km/h (1 Bft) O-NO 67 -1,1 C 3,4 km/h (1 Bft)
04.04.2015 10:20 1,0 C 1,7 C 86 % 1011,9 hPa 0,0 mm 3,1 km/h (1 Bft) NO 45 -1,1 C 3,1 km/h (1 Bft)
04.04.2015 10:25 1,0 C 1,7 C 86 % 1011,8 hPa 0,0 mm 2,6 km/h (1 Bft) O-NO 67 -1,1 C 5,2 km/h (1 Bft)
04.04.2015 10:30 1,1 C 1,8 C 86 % 1011,8 hPa 0,0 mm 2,6 km/h (1 Bft) O-NO 67 -1,0 C 2,6 km/h (1 Bft)
04.04.2015 10:35 1,1 C 1,8 C 86 % 1011,8 hPa 0,0 mm 3,1 km/h (1 Bft) O-NO 67 -1,0 C 4,9 km/h (1 Bft)
04.04.2015 10:40 1,1 C 1,8 C 86 % 1011,8 hPa 0,0 mm 3,6 km/h (1 Bft) O-NO 67 -1,0 C 4,7 km/h (1 Bft)
04.04.2015 10:45 1,1 C 2,0 C 86 % 1011,9 hPa 0,7 mm 3,6 km/h (1 Bft) NO 45 -1,0 C 7,3 km/h (2 Bft)
04.04.2015 10:50 1,1 C 1,9 C 86 % 1011,9 hPa 0,0 mm 3,6 km/h (1 Bft) W-SW 247 -1,0 C 3,6 km/h (1 Bft)
04.04.2015 10:55 1,2 C 2,2 C 86 % 1011,9 hPa 0,0 mm 2,6 km/h (1 Bft) NO 45 -0,9 C 0,0 km/h (0 Bft)
04.04.2015 11:00 1,2 C 2,2 C 86 % 1011,9 hPa 0,0 mm 2,6 km/h (1 Bft) O-NO 67 -0,9 C 5,4 km/h (1 Bft)
04.04.2015 11:05 1,2 C 2,1 C 86 % 1012,0 hPa 0,7 mm 3,4 km/h (1 Bft) N-NO 22 -0,9 C 4,7 km/h (1 Bft)
04.04.2015 11:10 1,2 C 2,2 C 86 % 1012,0 hPa 0,0 mm 3,6 km/h (1 Bft) O-NO 67 -0,9 C 4,9 km/h (1 Bft)
04.04.2015 11:15 1,2 C 2,2 C 86 % 1012,0 hPa 0,0 mm 3,4 km/h (1 Bft) O-NO 67 -0,9 C 5,2 km/h (1 Bft)
04.04.2015 11:20 1,2 C 2,1 C 86 % 1012,0 hPa 0,0 mm 4,1 km/h (1 Bft) O-NO 67 -0,9 C 0,0 km/h (0 Bft)
04.04.2015 11:25 1,2 C 2,3 C 86 % 1012,1 hPa 0,0 mm 4,1 km/h (1 Bft) NO 45 -0,9 C 5,2 km/h (1 Bft)
04.04.2015 11:30 1,2 C 2,2 C 86 % 1012,1 hPa 0,0 mm 3,9 km/h (1 Bft) NO 45 -0,9 C 4,9 km/h (1 Bft)
04.04.2015 11:35 1,2 C 2,4 C 86 % 1012,1 hPa 0,7 mm 2,8 km/h (1 Bft) O-NO 67 -0,9 C 3,6 km/h (1 Bft)
04.04.2015 11:40 1,3 C 2,6 C 86 % 1012,1 hPa 0,0 mm 1,6 km/h (1 Bft) O-NO 67 -0,8 C 2,6 km/h (1 Bft)
04.04.2015 11:45 1,3 C 2,7 C 86 % 1012,2 hPa 0,0 mm 0,8 km/h (0 Bft) NO 45 -0,8 C 3,4 km/h (1 Bft)
04.04.2015 11:50 1,3 C 2,7 C 86 % 1012,2 hPa 0,0 mm 1,0 km/h (0 Bft) SO 135 -0,8 C 0,0 km/h (0 Bft)
04.04.2015 11:55 1,5 C 3,1 C 86 % 1012,2 hPa 0,0 mm 1,0 km/h (0 Bft) O-NO 67 -0,6 C 0,0 km/h (0 Bft)
04.04.2015 12:00 1,5 C 3,1 C 86 % 1012,2 hPa 0,0 mm 1,3 km/h (1 Bft) O-NO 67 -0,6 C 4,4 km/h (1 Bft)
04.04.2015 12:05 1,5 C 3,1 C 86 % 1012,1 hPa 0,7 mm 1,6 km/h (1 Bft) O-NO 67 -0,6 C 3,6 km/h (1 Bft)
04.04.2015 12:10 1,6 C 3,2 C 86 % 1012,1 hPa 0,0 mm 1,6 km/h (1 Bft) O 90 -0,5 C 4,4 km/h (1 Bft)
04.04.2015 12:15 1,6 C 3,2 C 86 % 1012,1 hPa 0,0 mm 1,6 km/h (1 Bft) NO 45 -0,5 C 5,4 km/h (1 Bft)
04.04.2015 12:20 1,5 C 3,1 C 86 % 1012,1 hPa 0,0 mm 2,1 km/h (1 Bft) O-SO 112 -0,6 C 3,6 km/h (1 Bft)
04.04.2015 12:25 1,5 C 3,0 C 86 % 1012,1 hPa 0,7 mm 2,6 km/h (1 Bft) O-NO 67 -0,6 C 3,6 km/h (1 Bft)
04.04.2015 12:30 1,3 C 2,8 C 86 % 1012,1 hPa 0,0 mm 2,8 km/h (1 Bft) O-NO 67 -0,8 C 2,8 km/h (1 Bft)
04.04.2015 12:35 1,3 C 2,8 C 86 % 1012,1 hPa 0,0 mm 3,1 km/h (1 Bft) O-NO 67 -0,8 C 5,7 km/h (1 Bft)
04.04.2015 12:40 1,5 C 2,7 C 86 % 1012,1 hPa 0,0 mm 3,6 km/h (1 Bft) O-NO 67 -0,6 C 0,0 km/h (0 Bft)
04.04.2015 12:45 1,6 C 3,0 C 86 % 1011,9 hPa 0,0 mm 4,7 km/h (1 Bft) O-NO 67 -0,5 C 6,7 km/h (2 Bft)
04.04.2015 12:50 1,7 C 3,4 C 86 % 1011,9 hPa 0,7 mm 4,1 km/h (1 Bft) O-NO 67 -0,4 C 5,2 km/h (1 Bft)
04.04.2015 12:55 1,6 C 3,7 C 86 % 1011,9 hPa 0,0 mm 4,4 km/h (1 Bft) O-NO 67 -0,5 C 2,8 km/h (1 Bft)
04.04.2015 13:00 1,6 C 3,6 C 86 % 1011,9 hPa 0,0 mm 3,9 km/h (1 Bft) O-NO 67 -0,5 C 3,9 km/h (1 Bft)
04.04.2015 13:05 1,6 C 3,6 C 86 % 1011,9 hPa 0,7 mm 3,1 km/h (1 Bft) O-NO 67 -0,5 C 4,4 km/h (1 Bft)
04.04.2015 13:10 1,6 C 3,5 C 85 % 1011,9 hPa 0,0 mm 3,6 km/h (1 Bft) O-NO 67 -0,6 C 4,1 km/h (1 Bft)
04.04.2015 13:15 1,5 C 3,3 C 85 % 1011,9 hPa 0,0 mm 3,6 km/h (1 Bft) O-NO 67 -0,7 C 3,6 km/h (1 Bft)
04.04.2015 13:20 1,5 C 3,1 C 85 % 1011,9 hPa 0,0 mm 3,6 km/h (1 Bft) O-NO 67 -0,7 C 2,8 km/h (1 Bft)
04.04.2015 13:25 1,6 C 3,1 C 85 % 1011,8 hPa 0,7 mm 3,9 km/h (1 Bft) O-NO 67 -0,6 C 6,7 km/h (2 Bft)
04.04.2015 13:30 1,5 C 3,0 C 85 % 1011,8 hPa 0,0 mm 4,1 km/h (1 Bft) O-NO 67 -0,7 C 5,4 km/h (1 Bft)
04.04.2015 13:35 1,5 C 2,8 C 85 % 1011,8 hPa 0,0 mm 5,2 km/h (1 Bft) O-NO 67 -0,7 C 8,8 km/h (2 Bft)
04.04.2015 13:40 1,5 C 3,0 C 85 % 1011,8 hPa 0,0 mm 4,7 km/h (1 Bft) O-NO 67 -0,7 C 5,2 km/h (1 Bft)
04.04.2015 13:45 1,5 C 3,3 C 85 % 1011,7 hPa 0,7 mm 4,4 km/h (1 Bft) NO 45 -0,7 C 3,6 km/h (1 Bft)
04.04.2015 13:50 1,6 C 3,5 C 85 % 1011,7 hPa 0,0 mm 4,1 km/h (1 Bft) O-NO 67 -0,6 C 6,2 km/h (2 Bft)
04.04.2015 13:55 1,6 C 3,5 C 85 % 1011,7 hPa 0,0 mm 4,1 km/h (1 Bft) O-NO 67 -0,6 C 7,8 km/h (2 Bft)
04.04.2015 14:00 1,8 C 3,4 C 85 % 1011,7 hPa 0,0 mm 4,7 km/h (1 Bft) O-NO 67 -0,4 C 4,7 km/h (1 Bft)
04.04.2015 14:05 1,9 C 3,6 C 85 % 1011,5 hPa 0,0 mm 5,2 km/h (1 Bft) O-NO 67 -0,3 C 10,4 km/h (2 Bft)
04.04.2015 14:10 1,9 C 4,2 C 85 % 1011,5 hPa 0,7 mm 4,7 km/h (1 Bft) O-NO 67 -0,3 C 4,1 km/h (1 Bft)
04.04.2015 14:15 2,0 C 4,4 C 85 % 1011,5 hPa 0,0 mm 3,6 km/h (1 Bft) O-NO 67 -0,3 C 2,8 km/h (1 Bft)
04.04.2015 14:20 2,0 C 4,4 C 85 % 1011,5 hPa 0,0 mm 3,6 km/h (1 Bft) O-NO 67 -0,3 C 5,2 km/h (1 Bft)
04.04.2015 14:25 2,0 C 4,2 C 85 % 1011,4 hPa 0,0 mm 3,4 km/h (1 Bft) O-NO 67 -0,3 C 3,6 km/h (1 Bft)
04.04.2015 14:30 2,0 C 4,3 C 85 % 1011,4 hPa 0,0 mm 3,6 km/h (1 Bft) O 90 -0,3 C 5,7 km/h (1 Bft)
04.04.2015 14:35 2,0 C 4,2 C 85 % 1011,4 hPa 0,0 mm 4,7 km/h (1 Bft) O 90 -0,3 C 5,2 km/h (1 Bft)
04.04.2015 14:40 2,1 C 4,1 C 85 % 1011,4 hPa 0,7 mm 4,1 km/h (1 Bft) O-NO 67 -0,2 C 0,0 km/h (0 Bft)
04.04.2015 14:45 2,0 C 3,7 C 85 % 1011,2 hPa 0,0 mm 3,9 km/h (1 Bft) O-NO 67 -0,3 C 4,9 km/h (1 Bft)
04.04.2015 14:50 2,0 C 3,4 C 85 % 1011,2 hPa 0,0 mm 3,6 km/h (1 Bft) NO 45 -0,3 C 4,4 km/h (1 Bft)
04.04.2015 14:55 2,1 C 3,4 C 85 % 1011,2 hPa 0,0 mm 4,4 km/h (1 Bft) NO 45 -0,2 C 5,4 km/h (1 Bft)
04.04.2015 15:00 2,1 C 3,4 C 85 % 1011,2 hPa 0,0 mm 4,7 km/h (1 Bft) O-SO 112 -0,2 C 4,4 km/h (1 Bft)
04.04.2015 15:05 2,0 C 3,3 C 85 % 1011,0 hPa 0,0 mm 4,4 km/h (1 Bft) O-NO 67 -0,3 C 7,8 km/h (2 Bft)
04.04.2015 15:10 2,0 C 2,9 C 85 % 1011,0 hPa 0,0 mm 4,9 km/h (1 Bft) NO 45 -0,3 C 7,3 km/h (2 Bft)
04.04.2015 15:15 2,0 C 3,1 C 85 % 1011,0 hPa 0,0 mm 4,4 km/h (1 Bft) O-SO 112 -0,3 C 2,8 km/h (1 Bft)
04.04.2015 15:20 2,0 C 3,2 C 85 % 1011,0 hPa 0,0 mm 4,1 km/h (1 Bft) O-NO 67 -0,3 C 8,3 km/h (2 Bft)
04.04.2015 15:25 1,9 C 2,7 C 85 % 1010,9 hPa 0,0 mm 4,7 km/h (1 Bft) O-NO 67 -0,3 C 5,7 km/h (1 Bft)
04.04.2015 15:30 1,9 C 2,5 C 85 % 1010,9 hPa 0,0 mm 5,2 km/h (1 Bft) O-NO 67 -0,3 C 4,1 km/h (1 Bft)
04.04.2015 15:35 2,0 C 2,8 C 85 % 1010,9 hPa 0,7 mm 4,1 km/h (1 Bft) SW 225 -0,3 C 3,9 km/h (1 Bft)
04.04.2015 15:40 2,0 C 2,8 C 85 % 1010,9 hPa 0,0 mm 3,6 km/h (1 Bft) O-NO 67 -0,3 C 3,6 km/h (1 Bft)
04.04.2015 15:45 1,9 C 2,4 C 85 % 1010,7 hPa 0,0 mm 3,9 km/h (1 Bft) O-NO 67 -0,3 C 6,0 km/h (2 Bft)
04.04.2015 15:50 1,9 C 2,3 C 85 % 1010,7 hPa 0,0 mm 3,1 km/h (1 Bft) O-NO 67 -0,3 C 3,4 km/h (1 Bft)
04.04.2015 15:55 1,8 C 2,3 C 85 % 1010,7 hPa 0,0 mm 3,4 km/h (1 Bft) NO 45 -0,4 C 6,7 km/h (2 Bft)
04.04.2015 16:00 1,8 C 2,2 C 85 % 1010,7 hPa 0,0 mm 3,6 km/h (1 Bft) O-NO 67 -0,4 C 6,0 km/h (2 Bft)
04.04.2015 16:05 1,6 C 1,9 C 85 % 1010,8 hPa 0,0 mm 4,4 km/h (1 Bft) NO 45 -0,6 C 7,0 km/h (2 Bft)
04.04.2015 16:10 1,5 C 1,6 C 85 % 1010,8 hPa 0,0 mm 5,2 km/h (1 Bft) O-NO 67 -0,7 C 7,0 km/h (2 Bft)
04.04.2015 16:15 1,5 C 1,8 C 85 % 1010,8 hPa 0,7 mm 3,9 km/h (1 Bft) NO 45 -0,7 C 0,0 km/h (0 Bft)
04.04.2015 16:20 1,5 C 1,8 C 86 % 1010,8 hPa 0,0 mm 2,3 km/h (1 Bft) O 90 -0,6 C 3,1 km/h (1 Bft)
04.04.2015 16:25 1,5 C 1,6 C 86 % 1010,7 hPa 0,0 mm 0,8 km/h (0 Bft) O-NO 67 -0,6 C 0,0 km/h (0 Bft)
04.04.2015 16:30 1,5 C 1,6 C 86 % 1010,7 hPa 0,0 mm 0,8 km/h (0 Bft) N-NO 22 -0,6 C 2,8 km/h (1 Bft)
04.04.2015 16:35 1,5 C 1,6 C 86 % 1010,7 hPa 0,0 mm 1,8 km/h (1 Bft) O-SO 112 -0,6 C 0,0 km/h (0 Bft)
04.04.2015 16:40 1,5 C 1,6 C 86 % 1010,7 hPa 0,0 mm 2,8 km/h (1 Bft) NO 45 -0,6 C 4,9 km/h (1 Bft)
04.04.2015 16:45 1,5 C 1,7 C 86 % 1010,8 hPa 0,7 mm 1,8 km/h (1 Bft) NW 315 -0,6 C 3,4 km/h (1 Bft)
04.04.2015 16:50 1,5 C 1,9 C 86 % 1010,8 hPa 0,0 mm 1,3 km/h (1 Bft) N-NW 337 -0,6 C 0,0 km/h (0 Bft)
04.04.2015 16:55 1,5 C 1,9 C 86 % 1010,8 hPa 0,0 mm 0,8 km/h (0 Bft) O-SO 112 -0,6 C 0,0 km/h (0 Bft)
04.04.2015 17:00 1,5 C 1,7 C 86 % 1010,8 hPa 0,0 mm 0,3 km/h (0 Bft) O-NO 67 -0,6 C 0,0 km/h (0 Bft)
04.04.2015 17:05 1,3 C 1,5 C 86 % 1010,8 hPa 0,0 mm 0,0 km/h (0 Bft) O 90 -0,8 C 0,0 km/h (0 Bft)
04.04.2015 17:10 1,2 C 1,3 C 86 % 1010,8 hPa 0,0 mm 0,0 km/h (0 Bft) O-NO 67 -0,9 C 0,0 km/h (0 Bft)
04.04.2015 17:15 1,2 C 1,4 C 86 % 1010,8 hPa 0,7 mm 0,0 km/h (0 Bft) NO 45 -0,9 C 0,0 km/h (0 Bft)
04.04.2015 17:20 1,2 C 1,4 C 86 % 1010,8 hPa 0,0 mm 0,3 km/h (0 Bft) O-NO 67 -0,9 C 2,6 km/h (1 Bft)
04.04.2015 17:25 1,2 C 1,4 C 86 % 1010,8 hPa 0,0 mm 0,3 km/h (0 Bft) NO 45 -0,9 C 0,0 km/h (0 Bft)
04.04.2015 17:30 1,1 C 1,3 C 86 % 1010,8 hPa 0,0 mm 0,0 km/h (0 Bft) O-SO 112 -1,0 C 0,0 km/h (0 Bft)
04.04.2015 17:35 1,1 C 1,1 C 86 % 1010,8 hPa 0,0 mm 0,0 km/h (0 Bft) O-SO 112 -1,0 C 0,0 km/h (0 Bft)
04.04.2015 17:40 1,1 C 1,1 C 86 % 1010,8 hPa 0,0 mm 0,3 km/h (0 Bft) O-NO 67 -1,0 C 0,0 km/h (0 Bft)
04.04.2015 17:45 1,1 C 1,0 C 86 % 1010,7 hPa 0,0 mm 1,0 km/h (0 Bft) SO 135 -1,0 C 0,0 km/h (0 Bft)
04.04.2015 17:50 1,0 C 1,0 C 86 % 1010,7 hPa 0,0 mm 1,0 km/h (0 Bft) O-NO 67 -1,1 C 0,0 km/h (0 Bft)
04.04.2015 17:55 1,0 C 0,9 C 87 % 1010,7 hPa 0,0 mm 0,8 km/h (0 Bft) O-NO 67 -0,9 C 2,8 km/h (1 Bft)
04.04.2015 18:00 0,9 C 0,9 C 86 % 1010,7 hPa 0,0 mm 0,5 km/h (0 Bft) N-NO 22 -1,2 C 0,0 km/h (0 Bft)
04.04.2015 18:05 1,0 C 1,0 C 86 % 1010,9 hPa 0,0 mm 0,3 km/h (0 Bft) N-NO 22 -1,1 C 0,0 km/h (0 Bft)
04.04.2015 18:10 1,0 C 0,9 C 86 % 1010,9 hPa 0,0 mm 0,0 km/h (0 Bft) NW 315 -1,1 C 0,0 km/h (0 Bft)
04.04.2015 18:15 0,9 C 0,9 C 86 % 1010,9 hPa 0,0 mm 0,0 km/h (0 Bft) N-NW 337 -1,2 C 0,0 km/h (0 Bft)
04.04.2015 18:20 0,9 C 0,8 C 86 % 1010,9 hPa 0,0 mm 0,0 km/h (0 Bft) W 270 -1,2 C 0,0 km/h (0 Bft)
04.04.2015 18:25 0,8 C 0,7 C 86 % 1011,1 hPa 0,0 mm 0,0 km/h (0 Bft) NW 315 -1,3 C 0,0 km/h (0 Bft)
04.04.2015 18:30 0,7 C 0,7 C 86 % 1011,1 hPa 0,0 mm 0,0 km/h (0 Bft) W-NW 292 -1,4 C 0,0 km/h (0 Bft)
04.04.2015 18:35 0,7 C 0,6 C 86 % 1011,1 hPa 0,0 mm 0,0 km/h (0 Bft) W 270 -1,4 C 0,0 km/h (0 Bft)
04.04.2015 18:40 0,5 C 0,6 C 86 % 1011,1 hPa 0,0 mm 0,0 km/h (0 Bft) W 270 -1,6 C 0,0 km/h (0 Bft)
04.04.2015 18:45 0,5 C 0,6 C 86 % 1011,3 hPa 0,0 mm 0,0 km/h (0 Bft) W 270 -1,6 C 0,0 km/h (0 Bft)
04.04.2015 18:50 0,5 C 0,6 C 86 % 1011,3 hPa 0,0 mm 0,0 km/h (0 Bft) W 270 -1,6 C 0,0 km/h (0 Bft)
04.04.2015 18:55 0,5 C 0,5 C 86 % 1011,3 hPa 0,0 mm 0,0 km/h (0 Bft) NW 315 -1,6 C 0,0 km/h (0 Bft)
04.04.2015 19:00 0,5 C 0,5 C 86 % 1011,3 hPa 0,0 mm 0,0 km/h (0 Bft) NW 315 -1,6 C 0,0 km/h (0 Bft)
04.04.2015 19:05 0,4 C 0,3 C 86 % 1011,5 hPa 0,0 mm 0,0 km/h (0 Bft) NW 315 -1,7 C 0,0 km/h (0 Bft)
04.04.2015 19:10 0,4 C 0,3 C 86 % 1011,5 hPa 0,0 mm 0,0 km/h (0 Bft) NW 315 -1,7 C 0,0 km/h (0 Bft)
04.04.2015 19:15 0,4 C 0,3 C 86 % 1011,5 hPa 0,0 mm 0,0 km/h (0 Bft) N-NW 337 -1,7 C 0,0 km/h (0 Bft)
04.04.2015 19:20 0,4 C 0,2 C 86 % 1011,5 hPa 0,0 mm 0,0 km/h (0 Bft) N-NW 337 -1,7 C 0,0 km/h (0 Bft)
04.04.2015 19:25 0,3 C 0,1 C 86 % 1011,6 hPa 0,0 mm 2,3 km/h (1 Bft) NO 45 -1,8 C 17,6 km/h (3 Bft)
04.04.2015 19:30 0,3 C 0,0 C 86 % 1011,6 hPa 0,0 mm 4,4 km/h (1 Bft) O-NO 67 -1,8 C 7,3 km/h (2 Bft)
04.04.2015 19:35 0,3 C 0,1 C 86 % 1011,6 hPa 0,0 mm 3,6 km/h (1 Bft) N-NO 22 -1,8 C 0,0 km/h (0 Bft)
04.04.2015 19:40 0,3 C 0,1 C 86 % 1011,6 hPa 0,0 mm 3,1 km/h (1 Bft) O-NO 67 -1,8 C 5,4 km/h (1 Bft)
04.04.2015 19:45 0,3 C 0,1 C 87 % 1011,8 hPa 0,0 mm 4,1 km/h (1 Bft) O-NO 67 -1,6 C 9,3 km/h (2 Bft)
04.04.2015 19:50 0,3 C -0,1 C 90 % 1011,8 hPa 0,0 mm 4,9 km/h (1 Bft) NO 45 -1,1 C 18,1 km/h (3 Bft)
04.04.2015 19:55 0,3 C -0,4 C 90 % 1011,8 hPa 0,0 mm 7,3 km/h (2 Bft) O-SO 112 -1,1 C 3,9 km/h (1 Bft)
04.04.2015 20:00 0,2 C -0,4 C 87 % 1011,8 hPa 0,0 mm 7,0 km/h (2 Bft) NO 45 -1,7 C 4,1 km/h (1 Bft)
04.04.2015 20:05 0,2 C -0,2 C 87 % 1011,8 hPa 0,0 mm 6,0 km/h (2 Bft) O-NO 67 -1,7 C 7,8 km/h (2 Bft)
04.04.2015 20:10 0,2 C -0,3 C 87 % 1011,8 hPa 0,0 mm 6,5 km/h (2 Bft) NO 45 -1,7 C 10,6 km/h (2 Bft)
04.04.2015 20:15 0,2 C -0,4 C 92 % 1011,8 hPa 0,0 mm 6,5 km/h (2 Bft) O-NO 67 -0,9 C 8,8 km/h (2 Bft)
04.04.2015 20:20 0,2 C -0,3 C 92 % 1011,8 hPa 0,0 mm 6,2 km/h (2 Bft) O-NO 67 -0,9 C 6,0 km/h (2 Bft)
04.04.2015 20:25 0,2 C -0,3 C 92 % 1011,9 hPa 0,0 mm 6,2 km/h (2 Bft) O-NO 67 -0,9 C 4,4 km/h (1 Bft)
04.04.2015 20:30 0,2 C -0,3 C 92 % 1011,9 hPa 0,0 mm 5,7 km/h (1 Bft) NO 45 -0,9 C 8,5 km/h (2 Bft)
04.04.2015 20:35 0,2 C -0,2 C 92 % 1011,9 hPa 0,0 mm 5,4 km/h (1 Bft) NO 45 -0,9 C 8,5 km/h (2 Bft)
04.04.2015 20:40 0,2 C -0,4 C 93 % 1011,9 hPa 0,0 mm 6,5 km/h (2 Bft) O-NO 67 -0,8 C 4,1 km/h (1 Bft)
04.04.2015 20:45 0,2 C -0,5 C 87 % 1011,9 hPa 0,0 mm 8,3 km/h (2 Bft) O-NO 67 -1,7 C 16,6 km/h (3 Bft)
04.04.2015 20:50 0,2 C -0,6 C 87 % 1011,9 hPa 0,0 mm 8,8 km/h (2 Bft) O-NO 67 -1,7 C 6,7 km/h (2 Bft)
04.04.2015 20:55 0,2 C -0,6 C 93 % 1011,9 hPa 0,0 mm 8,0 km/h (2 Bft) O-NO 67 -0,8 C 4,4 km/h (1 Bft)
04.04.2015 21:00 0,2 C -0,4 C 93 % 1011,9 hPa 0,0 mm 6,7 km/h (2 Bft) O-NO 67 -0,8 C 6,5 km/h (2 Bft)
04.04.2015 21:05 0,2 C -0,5 C 93 % 1012,4 hPa 0,0 mm 7,8 km/h (2 Bft) O-NO 67 -0,8 C 3,4 km/h (1 Bft)
04.04.2015 21:10 0,2 C -0,4 C 93 % 1012,4 hPa 0,0 mm 7,0 km/h (2 Bft) O-NO 67 -0,8 C 0,0 km/h (0 Bft)
04.04.2015 21:15 0,1 C -0,2 C 93 % 1012,4 hPa 0,0 mm 4,4 km/h (1 Bft) NO 45 -0,9 C 7,0 km/h (2 Bft)
04.04.2015 21:20 0,1 C -0,1 C 93 % 1012,4 hPa 0,0 mm 4,1 km/h (1 Bft) O-NO 67 -0,9 C 10,9 km/h (2 Bft)
04.04.2015 21:25 0,1 C -0,3 C 93 % 1012,7 hPa 0,0 mm 5,4 km/h (1 Bft) O-NO 67 -0,9 C 4,1 km/h (1 Bft)
04.04.2015 21:30 0,1 C -0,3 C 93 % 1012,7 hPa 0,0 mm 5,4 km/h (1 Bft) O-NO 67 -0,9 C 7,5 km/h (2 Bft)
04.04.2015 21:35 0,1 C -0,3 C 93 % 1012,7 hPa 0,0 mm 4,9 km/h (1 Bft) O-NO 67 -0,9 C 6,7 km/h (2 Bft)
04.04.2015 21:40 0,0 C -0,3 C 93 % 1012,7 hPa 0,0 mm 4,7 km/h (1 Bft) O-NO 67 -1,0 C 6,2 km/h (2 Bft)
04.04.2015 21:45 0,0 C -0,2 C 93 % 1012,8 hPa 0,0 mm 3,4 km/h (1 Bft) O-NO 67 -1,0 C 2,6 km/h (1 Bft)
04.04.2015 21:50 0,0 C -0,2 C 93 % 1012,8 hPa 0,0 mm 3,1 km/h (1 Bft) O-NO 67 -1,0 C 3,4 km/h (1 Bft)
04.04.2015 21:55 0,0 C -0,2 C 93 % 1012,8 hPa 0,0 mm 2,1 km/h (1 Bft) O-NO 67 -1,0 C 4,4 km/h (1 Bft)
04.04.2015 22:00 0,0 C -0,2 C 92 % 1012,8 hPa 0,0 mm 1,0 km/h (0 Bft) O-NO 67 -1,1 C 0,0 km/h (0 Bft)
04.04.2015 22:05 0,0 C -0,2 C 92 % 1012,9 hPa 0,0 mm 0,8 km/h (0 Bft) O-NO 67 -1,1 C 7,3 km/h (2 Bft)
04.04.2015 22:10 0,0 C -0,2 C 92 % 1012,9 hPa 0,0 mm 1,3 km/h (1 Bft) O-NO 67 -1,1 C 0,0 km/h (0 Bft)
04.04.2015 22:15 0,0 C -0,2 C 92 % 1012,9 hPa 0,0 mm 1,0 km/h (0 Bft) O-NO 67 -1,1 C 0,0 km/h (0 Bft)
04.04.2015 22:20 0,0 C -0,2 C 92 % 1012,9 hPa 0,0 mm 0,3 km/h (0 Bft) O-NO 67 -1,1 C 0,0 km/h (0 Bft)
04.04.2015 22:25 0,0 C -0,2 C 92 % 1013,1 hPa 0,0 mm 0,0 km/h (0 Bft) O-NO 67 -1,1 C 0,0 km/h (0 Bft)
04.04.2015 22:30 0,0 C -0,2 C 92 % 1013,1 hPa 0,0 mm 0,3 km/h (0 Bft) O-NO 67 -1,1 C 0,0 km/h (0 Bft)
04.04.2015 22:35 0,0 C -0,2 C 92 % 1013,1 hPa 0,0 mm 0,0 km/h (0 Bft) O-NO 67 -1,1 C 0,0 km/h (0 Bft)
04.04.2015 22:40 0,0 C -0,3 C 92 % 1013,1 hPa 0,0 mm 0,0 km/h (0 Bft) O-NO 67 -1,1 C 0,0 km/h (0 Bft)
04.04.2015 22:45 0,0 C -0,3 C 92 % 1013,2 hPa 0,0 mm 0,3 km/h (0 Bft) O-NO 67 -1,1 C 0,0 km/h (0 Bft)
04.04.2015 22:50 0,0 C -0,3 C 92 % 1013,2 hPa 0,0 mm 0,5 km/h (0 Bft) O-NO 67 -1,1 C 0,0 km/h (0 Bft)
04.04.2015 22:55 0,0 C -0,3 C 92 % 1013,2 hPa 0,0 mm 0,3 km/h (0 Bft) O-NO 67 -1,1 C 0,0 km/h (0 Bft)
04.04.2015 23:00 -0,1 C -0,3 C 92 % 1013,2 hPa 0,0 mm 0,3 km/h (0 Bft) O-NO 67 -1,2 C 0,0 km/h (0 Bft)
04.04.2015 23:05 0,0 C -0,3 C 92 % 1013,2 hPa 0,0 mm 0,0 km/h (0 Bft) O-NO 67 -1,1 C 0,0 km/h (0 Bft)
04.04.2015 23:10 -0,1 C -0,4 C 92 % 1013,2 hPa 0,0 mm 0,0 km/h (0 Bft) O-NO 67 -1,2 C 0,0 km/h (0 Bft)
04.04.2015 23:15 -0,1 C -0,4 C 91 % 1013,2 hPa 0,0 mm 0,0 km/h (0 Bft) O-NO 67 -1,4 C 0,0 km/h (0 Bft)
04.04.2015 23:20 -0,1 C -0,4 C 91 % 1013,2 hPa 0,0 mm 0,0 km/h (0 Bft) O-NO 67 -1,4 C 0,0 km/h (0 Bft)
04.04.2015 23:25 -0,2 C -0,5 C 91 % 1013,3 hPa 0,0 mm 0,0 km/h (0 Bft) O-NO 67 -1,5 C 0,0 km/h (0 Bft)
04.04.2015 23:30 -0,2 C -0,5 C 91 % 1013,3 hPa 0,0 mm 0,0 km/h (0 Bft) O-NO 67 -1,5 C 0,0 km/h (0 Bft)
04.04.2015 23:35 -0,3 C -0,5 C 91 % 1013,3 hPa 0,0 mm 0,0 km/h (0 Bft) O-NO 67 -1,6 C 0,0 km/h (0 Bft)
04.04.2015 23:40 -0,3 C -0,6 C 91 % 1013,3 hPa 0,0 mm 0,0 km/h (0 Bft) O-NO 67 -1,6 C 0,0 km/h (0 Bft)
04.04.2015 23:45 -0,3 C -0,6 C 91 % 1013,3 hPa 0,0 mm 0,0 km/h (0 Bft) O-NO 67 -1,6 C 0,0 km/h (0 Bft)
04.04.2015 23:50 -0,3 C -0,6 C 91 % 1013,3 hPa 0,0 mm 0,0 km/h (0 Bft) O-NO 67 -1,6 C 0,0 km/h (0 Bft)
04.04.2015 23:55 -0,3 C -0,6 C 91 % 1013,3 hPa 0,0 mm 0,0 km/h (0 Bft) O-NO 67 -1,6 C 0,0 km/h (0 Bft)
_ Min-Zeit 23:55 23:55 00:00 18:00 - 23:55 - - 08:35 23:55
Minimum _ -0,3 C -0,6 C 78 % 1010,7 hPa - 0,0 km/h (0 Bft) - - -1,9 C 0,0 km/h (0 Bft)
_ Max-Zeit 15:00 14:20 21:55 00:00 17:15 20:50 - - 15:00 19:50
Maximum _ 2,1 C 4,4 C 93 % 1015,9 hPa 0,7 mm 8,8 km/h
O-NO (2 Bft)
- - -0,2 C 18,1 km/h
NO (3 Bft)
Durchschnitt _ 0,8 C 1,1 C 87 % 1012,5 hPa #13,1 mm 1,6 km/h (1 Bft) O-NO - -1,2 C 2,1 km/h (1 Bft)